EW3525 Weather Reports


time (UTC)temp
C
wind
direction
speed
KPH
gust
KPH
rain 1hr
cm
rain 24hr
cm
rain mn
cm
humidity
%
barometer
mb
20260506232524 3 42 0.0 0.0 0.00 0.00 0.00 88 1015.2
20260506232024 3 42 0.0 0.0 0.00 0.00 0.00 88 1015.2
20260506231524 3 42 0.0 0.0 0.00 0.00 0.00 88 1015.2
20260506231022 3 42 0.0 0.0 0.00 0.00 0.00 87 1015.2
20260506230521 4 42 0.0 0.0 0.00 0.00 0.00 87 1015.1
20260506230021 4 42 0.0 0.0 0.00 0.00 0.00 87 1015.1
20260506225520 4 42 0.0 0.0 0.00 0.00 0.00 86 1015.1
20260506225019 4 42 0.0 0.0 0.00 0.00 0.00 87 1015.1
20260506224526 4 42 0.0 0.0 0.00 0.00 0.00 87 1015.1
20260506224018 4 42 0.0 0.0 0.00 0.00 0.00 86 1015.0
20260506223517 4 42 0.0 0.0 0.00 0.00 0.00 86 1015.1
20260506223016 4 42 0.0 0.0 0.00 0.00 0.00 86 1015.0
20260506222517 5 42 0.0 0.0 0.00 0.00 0.00 86 1015.0
20260506222015 5 42 0.0 0.0 0.00 0.00 0.00 85 1015.0
20260506221515 5 42 0.0 0.0 0.00 0.00 0.00 85 1015.0
20260506221013 5 42 0.0 0.0 0.00 0.00 0.00 84 1015.0
20260506220513 5 42 0.0 0.0 0.00 0.00 0.00 84 1014.9
20260506220013 5 42 0.0 0.0 0.00 0.00 0.00 84 1014.9
20260506215512 5 42 0.0 0.0 0.00 0.00 0.00 83 1014.9
20260506215111 5 42 0.0 0.0 0.00 0.00 0.00 83 1014.9
20260506214510 5 42 0.0 0.0 0.00 0.00 0.00 83 1014.8
20260506214010 5 42 0.0 0.0 0.00 0.00 0.00 83 1014.8
20260506213509 5 42 0.0 0.0 0.00 0.00 0.00 83 1014.9
20260506213016 6 42 0.0 0.0 0.00 0.00 0.00 82 1014.9
20260506212513 6 42 0.0 0.0 0.00 0.00 0.00 82 1014.8
20260506212007 6 42 0.0 0.0 0.00 0.00 0.00 82 1014.8
20260506211506 6 42 0.0 0.0 0.00 0.00 0.00 82 1014.8
20260506211008 6 42 0.0 0.0 0.00 0.00 0.00 82 1014.8
20260506210505 6 42 0.0 0.0 0.00 0.00 0.00 81 1014.7
20260506210004 6 42 0.0 0.0 0.00 0.00 0.00 80 1014.6
20260506205503 7 42 0.0 0.0 0.00 0.00 0.00 79 1014.6
20260506205001 7 42 0.0 0.0 0.00 0.00 0.00 79 1014.6
20260506204600 7 42 0.0 0.0 0.00 0.00 0.00 78 1014.5
20260506204059 7 42 0.0 0.0 0.00 0.00 0.00 77 1014.4
20260506203559 7 42 0.0 0.0 0.00 0.00 0.00 75 1014.4
20260506203143 7 42 0.0 3.2 0.00 0.00 0.00 74 1014.4
20260506202559 8 42 0.0 3.2 0.00 0.00 0.00 72 1014.4
20260506202058 8 42 0.0 3.2 0.00 0.00 0.00 71 1014.3
20260506201558 8 32 0.0 3.2 0.00 0.00 0.00 70 1014.3
20260506201101 9 43 0.0 6.4 0.00 0.00 0.00 69 1014.3
20260506200557 10 51 0.0 6.4 0.00 0.00 0.00 68 1014.2
20260506200057 10 55 0.0 3.2 0.00 0.00 0.00 67 1014.3
20260506195557 10 26 0.0 3.2 0.00 0.00 0.00 67 1014.2
20260506195058 10 21 0.0 3.2 0.00 0.00 0.00 68 1014.1
20260506194556 10 345 0.0 3.2 0.00 0.00 0.00 68 1014.1
20260506194054 10 40 0.0 3.2 0.00 0.00 0.00 67 1014.0
20260506193553 10 53 0.0 3.2 0.00 0.00 0.00 67 1014.0
20260506193053 10 42 0.0 3.2 0.00 0.00 0.00 67 1013.9
20260506192554 11 360 0.0 4.8 0.00 0.00 0.00 66 1013.9
20260506192052 11 13 0.0 3.2 0.00 0.00 0.00 67 1013.9
20260506191554 11 355 0.0 3.2 0.00 0.00 0.00 65 1013.9
20260506191053 11 59 0.0 3.2 0.00 0.00 0.00 65 1013.8
20260506190554 11 30 0.0 3.2 0.00 0.00 0.00 65 1013.7
20260506190055 11 43 0.0 3.2 0.00 0.00 0.00 66 1013.8
20260506185552 11 9 0.0 3.2 0.00 0.00 0.00 66 1013.7
20260506185053 11 360 0.0 3.2 0.00 0.00 0.00 64 1013.7
20260506184558 11 36 0.0 3.2 0.00 0.00 0.00 65 1013.7
20260506184052 11 14 0.0 6.4 0.00 0.00 0.00 63 1013.7
20260506183549 11 5 1.6 6.4 0.00 0.00 0.00 63 1013.6
20260506183050 11 38 0.0 4.8 0.00 0.00 0.00 62 1013.7
20260506182548 11 360 1.6 4.8 0.00 0.00 0.00 62 1013.6
20260506182048 11 15 1.6 4.8 0.00 0.00 0.00 63 1013.6
20260506181550 11 30 0.0 4.8 0.00 0.00 0.00 63 1013.5
20260506181048 12 34 0.0 8.0 0.00 0.00 0.00 62 1013.5
20260506180548 12 60 1.6 8.0 0.00 0.00 0.00 62 1013.3
20260506180048 12 12 1.6 6.4 0.00 0.00 0.00 63 1013.3
20260506175548 12 24 0.0 4.8 0.00 0.00 0.00 63 1013.3
20260506175052 12 42 0.0 4.8 0.00 0.00 0.00 62 1013.1
20260506174604 12 16 1.6 4.8 0.00 0.00 0.00 61 1013.1
20260506174050 12 77 0.0 4.8 0.00 0.00 0.00 63 1013.1
20260506173547 12 50 0.0 6.4 0.00 0.00 0.00 64 1013.1
20260506173054 12 37 0.0 6.4 0.00 0.00 0.00 61 1013.0
20260506172546 12 65 0.0 6.4 0.00 0.00 0.00 61 1013.0
20260506172047 12 53 1.6 6.4 0.00 0.00 0.00 61 1013.0
20260506171546 12 46 3.2 6.4 0.00 0.00 0.00 60 1013.0
20260506171046 12 28 0.0 8.0 0.00 0.00 0.00 60 1013.0
20260506170547 12 355 0.0 8.0 0.00 0.00 0.00 60 1013.0
20260506170048 12 17 1.6 14.5 0.00 0.00 0.00 59 1013.0
20260506165545 13 9 4.8 14.5 0.00 0.00 0.00 57 1012.9
20260506165045 13 5 0.0 3.2 0.00 0.00 0.00 54 1012.8
20260506164549 13 355 1.6 4.8 0.00 0.00 0.00 54 1012.9
20260506164044 13 26 0.0 4.8 0.00 0.00 0.00 57 1012.9
20260506163544 13 355 0.0 3.2 0.00 0.00 0.00 56 1012.9
20260506163058 13 5 0.0 3.2 0.00 0.00 0.00 59 1013.0
20260506162544 12 344 0.0 6.4 0.00 0.00 0.00 60 1013.0
20260506162044 12 19 0.0 6.4 0.00 0.00 0.00 59 1013.0
20260506161545 12 5 0.0 6.4 0.00 0.00 0.00 57 1013.0
20260506161044 12 22 0.0 6.4 0.00 0.00 0.00 57 1013.0
20260506160544 12 17 1.6 4.8 0.00 0.00 0.00 59 1013.0
20260506160044 12 5 0.0 9.7 0.00 0.00 0.00 58 1013.0
20260506155543 13 11 3.2 9.7 0.00 0.00 0.00 54 1013.0
20260506155043 13 26 1.6 4.8 0.00 0.00 0.00 54 1012.9
20260506154548 14 38 0.0 8.0 0.00 0.00 0.00 56 1012.9
20260506154046 13 9 1.6 8.0 0.00 0.00 0.00 53 1013.0
20260506153543 14 346 1.6 4.8 0.00 0.00 0.00 53 1013.0
20260506153042 13 321 1.6 6.4 0.00 0.00 0.00 54 1013.0
20260506152542 14 18 1.6 9.7 0.00 0.00 0.00 54 1013.0
20260506152043 13 75 0.0 9.7 0.00 0.00 0.00 57 1012.9
20260506151543 14 355 3.2 14.5 0.00 0.00 0.00 52 1013.0
20260506151041 15 10 3.2 14.5 0.00 0.00 0.00 52 1013.0
20260506150541 15 104 3.2 8.0 0.00 0.00 0.00 53 1013.0
20260506150041 16 49 3.2 8.0 0.00 0.00 0.00 47 1012.9
20260506145541 17 20 0.0 6.4 0.00 0.00 0.00 47 1012.8
20260506145040 16 181 0.0 8.0 0.00 0.00 0.00 47 1012.9
20260506144545 16 80 3.2 8.0 0.00 0.00 0.00 46 1013.0
20260506144040 16 83 1.6 9.7 0.00 0.00 0.00 46 1012.9
20260506143540 17 21 0.0 9.7 0.00 0.00 0.00 43 1012.9
20260506143040 16 346 3.2 6.4 0.00 0.00 0.00 50 1013.0
20260506142542 15 33 3.2 6.4 0.00 0.00 0.00 49 1013.0
20260506142041 16 46 1.6 8.0 0.00 0.00 0.00 46 1012.9
20260506141540 16 5 3.2 8.0 0.00 0.00 0.00 49 1013.0
20260506141039 15 54 0.0 9.7 0.00 0.00 0.00 53 1013.0
20260506140542 14 45 1.6 9.7 0.00 0.00 0.00 49 1013.0
20260506140039 15 331 1.6 17.7 0.00 0.00 0.00 46 1013.1
20260506135539 16 16 3.2 17.7 0.00 0.00 0.00 48 1013.0
20260506135039 15 291 1.6 9.7 0.00 0.00 0.00 49 1013.0
20260506134538 15 131 0.0 12.9 0.00 0.00 0.00 50 1013.0
20260506134038 15 355 1.6 12.9 0.00 0.00 0.00 48 1013.0
20260506133538 17 27 4.8 12.9 0.00 0.00 0.00 44 1012.9
20260506133037 17 318 1.6 12.9 0.00 0.00 0.00 41 1012.9
20260506132536 17 27 3.2 12.9 0.00 0.00 0.00 42 1012.8
20260506132036 17 316 4.8 9.7 0.00 0.00 0.00 45 1012.8
20260506131538 17 30 1.6 12.9 0.00 0.00 0.00 45 1012.9
20260506131035 17 360 1.6 12.9 0.00 0.00 0.00 46 1012.9
20260506130536 16 5 4.8 12.9 0.00 0.00 0.00 47 1012.9
20260506130039 16 323 3.2 14.5 0.00 0.00 0.00 46 1013.1
20260506125534 16 61 3.2 11.3 0.00 0.00 0.00 50 1013.1
20260506125033 15 19 1.6 9.7 0.00 0.00 0.00 51 1013.1
20260506124533 15 29 1.6 9.7 0.00 0.00 0.00 50 1013.1
20260506124032 15 5 1.6 12.9 0.00 0.00 0.00 54 1013.2
20260506123532 15 40 3.2 12.9 0.00 0.00 0.00 51 1013.1
20260506123033 15 326 0.0 8.0 0.00 0.00 0.00 51 1013.2
20260506122533 16 48 3.2 8.0 0.00 0.00 0.00 50 1013.1
20260506122034 16 360 1.6 9.7 0.00 0.00 0.00 50 1013.2
20260506121531 16 355 0.0 9.7 0.00 0.00 0.00 52 1013.2
20260506121031 15 68 1.6 8.0 0.00 0.00 0.00 52 1013.2
20260506120531 16 53 1.6 8.0 0.00 0.00 0.00 52 1013.2
20260506120032 16 36 1.6 9.7 0.00 0.00 0.00 54 1013.3
20260506115532 15 360 0.0 8.0 0.00 0.00 0.00 51 1013.3
20260506115029 16 18 1.6 9.7 0.00 0.00 0.00 52 1013.3
20260506114527 15 24 3.2 9.7 0.00 0.00 0.00 47 1013.3
20260506114028 15 21 3.2 12.9 0.00 0.00 0.00 52 1013.3
20260506113527 15 53 1.6 12.9 0.00 0.00 0.00 53 1013.4
20260506113027 15 15 1.6 12.9 0.00 0.00 0.00 53 1013.4
20260506112528 15 40 1.6 12.9 0.00 0.00 0.00 54 1013.5
20260506112028 15 326 3.2 9.7 0.00 0.00 0.00 53 1013.4
20260506111528 15 46 3.2 17.7 0.00 0.00 0.00 56 1013.5
20260506111022 15 343 3.2 17.7 0.00 0.00 0.00 58 1013.6
20260506110522 15 5 3.2 12.9 0.00 0.00 0.00 54 1013.6
20260506110021 15 309 3.2 12.9 0.00 0.00 0.00 57 1013.6
20260506105521 14 355 3.2 12.9 0.00 0.00 0.00 55 1013.5
20260506105019 14 336 3.2 14.5 0.00 0.00 0.00 56 1013.6
20260506104518 13 67 1.6 14.5 0.00 0.00 0.00 55 1013.6
20260506104022 14 324 1.6 12.9 0.00 0.00 0.00 56 1013.6
20260506103516 14 304 4.8 9.7 0.00 0.00 0.00 54 1013.5
20260506103016 14 343 0.0 16.1 0.00 0.00 0.00 54 1013.6
20260506102516 14 31 3.2 16.1 0.00 0.00 0.00 56 1013.5
20260506102016 14 306 1.6 9.7 0.00 0.00 0.00 57 1013.5
20260506101514 14 11 3.2 9.7 0.00 0.00 0.00 54 1013.5
20260506101014 14 31 1.6 8.0 0.00 0.00 0.00 55 1013.6
20260506100512 13 345 1.6 9.7 0.00 0.00 0.00 58 1013.6
20260506100012 13 5 3.2 14.5 0.00 0.00 0.00 60 1013.6
20260506095512 13 43 1.6 14.5 0.00 0.00 0.00 60 1013.6
20260506095015 13 5 3.2 12.9 0.00 0.00 0.00 57 1013.5
20260506094511 13 338 3.2 9.7 0.00 0.00 0.00 57 1013.5
20260506094010 13 24 3.2 8.0 0.00 0.00 0.00 60 1013.4
20260506093512 13 273 3.2 8.0 0.00 0.00 0.00 60 1013.4
20260506093008 13 61 1.6 8.0 0.00 0.00 0.00 63 1013.4
20260506092506 12 23 1.6 9.7 0.00 0.00 0.00 60 1013.5
20260506092007 12 355 3.2 12.9 0.00 0.00 0.00 62 1013.6
20260506091505 12 21 3.2 12.9 0.00 0.00 0.00 64 1013.5
20260506091007 12 279 3.2 11.3 0.00 0.00 0.00 64 1013.5
20260506090503 12 350 3.2 8.0 0.00 0.00 0.00 64 1013.5
20260506090001 12 37 1.6 14.5 0.00 0.00 0.00 64 1013.6
20260506085600 12 355 3.2 14.5 0.00 0.00 0.00 67 1013.6
20260506085059 12 5 0.0 8.0 0.00 0.00 0.00 68 1013.5
20260506084630 11 13 1.6 8.0 0.00 0.00 0.00 68 1013.5
20260506084056 11 339 3.2 9.7 0.00 0.00 0.00 68 1013.6
20260506083556 11 40 3.2 9.7 0.00 0.00 0.00 68 1013.5
20260506083058 11 360 0.0 8.0 0.00 0.00 0.00 73 1013.6
20260506082555 10 46 1.6 9.7 0.00 0.00 0.00 73 1013.6
20260506082053 10 55 0.0 9.7 0.00 0.00 0.00 74 1013.6
20260506081607 10 24 0.0 9.7 0.00 0.00 0.00 74 1013.5
20260506081054 10 66 1.6 6.4 0.00 0.00 0.00 72 1013.6
20260506080552 10 344 1.6 6.4 0.00 0.00 0.00 72 1013.5
20260506073048 9 333 1.6 14.5 0.00 0.00 0.00 76 1013.5
20260506072548 8 63 1.6 14.5 0.00 0.00 0.00 76 1013.5
20260506072047 8 339 3.2 14.5 0.00 0.00 0.00 76 1013.5
20260506071547 8 350 1.6 9.7 0.00 0.00 0.00 76 1013.5
20260506071044 8 336 1.6 6.4 0.00 0.00 0.00 77 1013.5
20260506070543 8 32 1.6 6.4 0.00 0.00 0.00 77 1013.4
20260506062035 8 351 1.6 4.8 0.00 0.00 0.00 79 1013.2
20260506061535 8 269 1.6 8.0 0.00 0.00 0.00 79 1013.2
20260506061034 8 41 0.0 4.8 0.00 0.00 0.00 80 1013.2
20260506060533 7 42 0.0 3.2 0.00 0.00 0.00 80 1013.1
20260506051025 7 350 0.0 6.4 0.00 0.00 0.00 82 1012.9
20260506050522 7 21 0.0 12.9 0.00 0.00 0.00 81 1012.9
20260506045020 7 292 1.6 8.0 0.00 0.00 0.00 82 1012.9
20260506044519 7 40 0.0 8.0 0.00 0.00 0.00 82 1012.9
20260506044018 7 24 0.0 8.0 0.00 0.00 0.00 82 1012.9
20260506043520 7 17 0.0 4.8 0.00 0.00 0.00 83 1012.9
20260506043017 7 16 0.0 4.8 0.00 0.00 0.00 82 1012.8
20260506042517 7 322 0.0 4.8 0.00 0.00 0.00 82 1012.8
20260506042016 7 21 0.0 4.8 0.00 0.00 0.00 82 1012.8
20260506041531 7 50 1.6 6.4 0.00 0.00 0.00 81 1012.8
20260506041014 7 76 0.0 9.7 0.00 0.00 0.00 82 1012.8
20260506040517 7 355 0.0 9.7 0.00 0.00 0.00 81 1012.8
20260506040013 7 5 1.6 4.8 0.00 0.00 0.00 82 1012.8
20260506035516 7 37 0.0 4.8 0.00 0.00 0.00 83 1012.8
20260506035012 7 20 0.0 4.8 0.00 0.00 0.00 83 1012.7
20260506034511 8 344 0.0 3.2 0.00 0.00 0.00 83 1012.8
20260506034013 8 24 0.0 4.8 0.00 0.00 0.00 83 1012.7
20260506033515 8 13 0.0 4.8 0.00 0.00 0.00 83 1012.7
20260506033010 8 329 0.0 8.0 0.00 0.00 0.00 83 1012.7
20260506032509 8 341 1.6 8.0 0.00 0.00 0.00 83 1012.7
20260506032011 8 51 0.0 3.2 0.00 0.00 0.00 83 1012.7
20260506031508 8 345 0.0 3.2 0.00 0.00 0.00 83 1012.7
20260506031009 8 9 0.0 3.2 0.00 0.00 0.00 82 1012.7
20260506030509 8 37 0.0 3.2 0.00 0.00 0.00 83 1012.7
20260506030006 8 23 0.0 4.8 0.00 0.00 0.00 83 1012.7
20260506025509 8 41 0.0 4.8 0.00 0.00 0.00 83 1012.7
20260506025007 8 351 0.0 4.8 0.00 0.00 0.00 83 1012.7
20260506024506 8 38 0.0 3.2 0.00 0.00 0.00 83 1012.6
20260506024005 8 329 0.0 3.2 0.00 0.00 0.00 83 1012.7
20260506023505 8 336 0.0 3.2 0.00 0.00 0.00 84 1012.7
20260506023004 8 9 0.0 3.2 0.00 0.00 0.00 84 1012.7
20260506022506 8 25 0.0 3.2 0.00 0.00 0.00 83 1012.7
20260506022004 8 347 0.0 4.8 0.00 0.00 0.00 83 1012.7
20260506021503 8 39 0.0 8.0 0.00 0.00 0.00 83 1012.9
20260506021002 8 49 0.0 6.4 0.00 0.00 0.00 83 1012.7
20260506020506 8 37 0.0 3.2 0.00 0.00 0.00 83 1012.8
20260506020002 8 350 0.0 0.0 0.00 0.00 0.00 83 1012.9
20260506015502 8 355 0.0 4.8 0.00 0.00 0.00 83 1012.9
20260506015005 8 57 0.0 4.8 0.00 0.00 0.00 83 1012.9
20260506014502 8 29 0.0 3.2 0.00 0.00 0.00 83 1012.8
20260506014001 8 360 0.0 4.8 0.00 0.00 0.00 83 1012.9
20260506013501 8 38 0.0 4.8 0.00 0.00 0.00 83 1012.8
20260506013001 8 19 0.0 4.8 0.00 0.00 0.00 82 1012.8
20260506012603 8 9 0.0 4.8 0.00 0.00 0.00 82 1012.7
20260506012058 8 30 1.6 8.0 0.00 0.00 0.00 81 1012.8
20260506011607 8 13 0.0 8.0 0.00 0.00 0.00 81 1012.8
20260506011058 8 55 3.2 8.0 0.00 0.00 0.00 81 1012.8
20260506010557 8 40 1.6 8.0 0.00 0.00 0.00 81 1012.9
20260506010057 8 15 3.2 8.0 0.00 0.00 0.00 80 1012.9
20260506005556 9 24 1.6 8.0 0.00 0.00 0.00 80 1012.9
20260506005056 9 336 1.6 8.0 0.00 0.00 0.00 80 1012.9
20260506004559 9 31 3.2 6.4 0.00 0.00 0.00 79 1013.0
20260506004054 9 15 1.6 6.4 0.00 0.00 0.00 79 1013.0
20260506003553 9 51 0.0 8.0 0.00 0.00 0.00 78 1013.0
20260506003053 9 34 1.6 9.7 0.00 0.00 0.00 78 1013.0
20260506002552 10 33 3.2 9.7 0.00 0.00 0.00 77 1013.0
20260506002051 10 39 1.6 9.7 0.00 0.00 0.00 77 1012.9
20260506001556 10 10 1.6 9.7 0.00 0.00 0.00 76 1012.9
20260506001050 10 49 3.2 12.9 0.00 0.00 0.00 76 1012.8
20260506000550 10 346 1.6 14.5 0.00 0.00 0.00 76 1012.9
20260506000056 10 9 3.2 9.7 0.00 0.00 0.00 75 1012.9
20260505235547 10 46 1.6 12.9 0.00 0.00 0.00 76 1012.8
20260505235047 10 337 3.2 12.9 0.00 0.00 0.00 75 1012.9
20260505234547 10 18 1.6 16.1 0.00 0.00 0.00 75 1012.9
20260505234044 10 17 4.8 16.1 0.00 0.00 0.00 75 1012.9
20260505233548 10 53 4.8 12.9 0.00 0.00 0.00 75 1012.8
20260505233050 10 57 3.2 9.7 0.00 0.00 0.00 75 1012.8